Weather History for KAJZ - May, 2013

Change the Weather History Date:

Monday, May 6, 2013

  Actual Average (KMTJ) Record (KMTJ)
Temperature  
Mean Temperature 59 °F 55 °F  
Max Temperature 70 °F 70 °F 82 °F (1997)
Min Temperature 48 °F 40 °F 28 °F (1999)
Degree Days  
Heating Degree Days 6 10  
Month to date heating degree days 65  
Since 1 July heating degree days 6003  
Cooling Degree Days 0 0  
Month to date cooling degree days 0  
Year to date cooling degree days 0  
Growing Degree Days 9 (Base 50)    
Moisture  
Dew Point 37 °F    
Average Humidity 49    
Maximum Humidity 86    
Minimum Humidity 22    
Precipitation  
Precipitation 0.05 in 0.05 in 0.19 in (1998)
Month to date precipitation 0.28  
Year to date precipitation 3.50  
Sea Level Pressure  
Sea Level Pressure 30.01 in    
Wind  
Wind Speed 8 mph (NE)    
Max Wind Speed 23 mph    
Max Gust Speed 33 mph    
Visibility 10 miles    
Events Rain , Thunderstorm    
T = Trace of Precipitation, MM = Missing Value Source: NWS Daily Summary

Daily Weather History Graph

Daily Weather History Graph

Search for Another Location

Airport or City:

Trip Planner

Search our weather history database for the weather conditions in past years. The results will help you decide how hot, cold, wet, or windy it might be!

Date:

Astronomy

May. 06, 2013 Rise Set
Actual Time 6:08 AM MDT 8:09 PM MDT
Civil Twilight 5:39 AM MDT 8:38 PM MDT
Nautical Twilight 5:03 AM MDT 9:14 PM MDT
Astronomical Twilight 4:25 AM MDT 9:53 PM MDT
Moon 4:10 AM MDT (5/6) 5:14 PM MDT (5/6)
Length of Visible Light 14h 59m
Length of Day
14h 01m
Waning Crescent, 10% of the Moon is Illuminated
May 6
Waning Crescent
May 9
New
May 17
First Quarter
May 24
Full
May 31
Last Quarter

Hourly Weather History & Observations

Time (MDT) Temp. Dew Point Humidity Pressure Visibility Wind Dir Wind Speed Gust Speed Precip Events Conditions
12:15 AM 65.1 °F 25.5 °F 22% 30.01 in 10.0 mi SSW 10.4 mph 18.4 mph N/A   Overcast
12:35 AM 64.6 °F 27.0 °F 24% 30.02 in 10.0 mi ESE 9.2 mph 29.9 mph N/A   Overcast
12:55 AM 64.2 °F 27.1 °F 25% 30.02 in 10.0 mi Calm Calm - N/A   Overcast
1:15 AM 62.2 °F 30.7 °F 31% 30.04 in 10.0 mi ESE 19.6 mph 33.4 mph N/A   Overcast
1:35 AM 60.4 °F 32.7 °F 35% 30.04 in 10.0 mi NW 6.9 mph 16.1 mph N/A Rain Light Rain
1:55 AM 59.5 °F 35.4 °F 41% 30.03 in 10.0 mi NNE 13.8 mph 21.9 mph N/A   Overcast
2:15 AM 60.1 °F 32.4 °F 35% 30.01 in 10.0 mi NE 10.4 mph 23.0 mph N/A   Overcast
2:35 AM 59.9 °F 33.1 °F 36% 30.01 in 10.0 mi NNE 11.5 mph - N/A   Overcast
2:55 AM 60.1 °F 31.5 °F 34% 30.00 in 10.0 mi ENE 8.1 mph - N/A   Overcast
3:15 AM 60.3 °F 31.5 °F 34% 30.01 in 10.0 mi ENE 6.9 mph - N/A   Overcast
3:35 AM 60.1 °F 31.5 °F 34% 30.00 in 10.0 mi NE 6.9 mph 20.7 mph N/A   Mostly Cloudy
3:55 AM 59.2 °F 31.5 °F 35% 30.00 in 10.0 mi NE 8.1 mph - N/A   Mostly Cloudy
4:15 AM 57.7 °F 32.4 °F 38% 29.99 in 10.0 mi NNE 9.2 mph - N/A   Scattered Clouds
4:35 AM 57.2 °F 33.3 °F 40% 29.99 in 10.0 mi NNE 6.9 mph - N/A   Scattered Clouds
4:55 AM 57.2 °F 32.0 °F 38% 29.99 in 10.0 mi NE 4.6 mph - N/A   Mostly Cloudy
5:15 AM 57.4 °F 32.0 °F 38% 29.99 in 10.0 mi ENE 6.9 mph - N/A   Mostly Cloudy
5:35 AM 56.3 °F 32.4 °F 40% 30.00 in 10.0 mi East 6.9 mph - N/A   Overcast
5:55 AM 54.7 °F 32.5 °F 43% 29.99 in 10.0 mi ENE 5.8 mph - N/A   Mostly Cloudy
6:15 AM 54.5 °F 32.4 °F 43% 29.99 in 10.0 mi NE 10.4 mph - N/A   Scattered Clouds
6:35 AM 54.1 °F 32.9 °F 45% 30.00 in 10.0 mi NNE 9.2 mph - N/A   Clear
6:55 AM 52.7 °F 34.7 °F 50% 30.00 in 10.0 mi NNE 6.9 mph - N/A   Clear
7:15 AM 55.9 °F 32.9 °F 42% 30.00 in 10.0 mi ENE 5.8 mph - N/A   Clear
7:35 AM 56.7 °F 33.1 °F 41% 30.00 in 10.0 mi ENE 9.2 mph - N/A   Clear
7:55 AM 56.7 °F 33.1 °F 41% 30.00 in 10.0 mi NE 6.9 mph - N/A   Clear
8:15 AM 59.7 °F 32.5 °F 36% 30.00 in 10.0 mi NE 5.8 mph - N/A   Scattered Clouds
8:35 AM 61.9 °F 32.2 °F 33% 30.00 in 10.0 mi ENE 4.6 mph - N/A   Clear
8:55 AM 63.3 °F 33.1 °F 32% 29.99 in 10.0 mi East 6.9 mph - N/A   Clear
9:15 AM 63.7 °F 31.8 °F 30% 29.99 in 10.0 mi ENE 5.8 mph - N/A   Clear
9:35 AM 64.0 °F 31.6 °F 30% 29.98 in 10.0 mi Calm Calm - N/A   Clear
9:55 AM 65.8 °F 31.8 °F 28% 29.98 in 10.0 mi Calm Calm - N/A   Clear
10:15 AM 65.7 °F 31.8 °F 28% 29.98 in 10.0 mi Calm Calm - N/A   Clear
10:35 AM 67.6 °F 31.6 °F 26% 29.96 in 10.0 mi South 3.5 mph - N/A   Clear
10:55 AM 68.5 °F 31.3 °F 25% 29.96 in 10.0 mi Calm Calm - N/A   Clear
11:15 AM 69.1 °F 30.7 °F 24% 29.95 in 10.0 mi Calm Calm - N/A Thunderstorm Thunderstorm
11:35 AM 69.1 °F 31.3 °F 25% 29.95 in 10.0 mi Calm Calm - N/A   Clear
11:55 AM 69.8 °F 30.7 °F 23% 29.95 in 10.0 mi SSW 5.8 mph - N/A   Clear
12:15 PM 70.0 °F 30.4 °F 23% 29.95 in 10.0 mi SSW 18.4 mph 25.3 mph N/A Thunderstorm Thunderstorm
12:35 PM 67.5 °F 34.2 °F 29% 29.94 in 10.0 mi SW 23.0 mph 28.8 mph N/A Thunderstorm Clear
12:55 PM 66.6 °F 35.6 °F 32% 29.95 in 10.0 mi WSW 21.9 mph 29.9 mph N/A Thunderstorm Clear
1:15 PM 65.7 °F 34.0 °F 31% 29.95 in 10.0 mi West 23.0 mph 28.8 mph N/A   Scattered Clouds
1:35 PM 66.0 °F 34.2 °F 31% 29.95 in 10.0 mi West 15.0 mph 23.0 mph N/A   Scattered Clouds
1:55 PM 65.5 °F 33.4 °F 30% 29.98 in 10.0 mi WSW 12.7 mph - N/A   Mostly Cloudy
2:15 PM 59.9 °F 45.0 °F 58% 29.99 in 10.0 mi South 15.0 mph 20.7 mph N/A Rain Light Rain
2:35 PM 61.0 °F 41.4 °F 48% 29.99 in 10.0 mi SSE 5.8 mph - N/A Thunderstorm Thunderstorm
2:55 PM 60.3 °F 41.4 °F 50% 30.00 in 10.0 mi South 12.7 mph - N/A   Mostly Cloudy
3:15 PM 59.2 °F 42.3 °F 53% 30.00 in 10.0 mi SW 11.5 mph 16.1 mph N/A   Overcast
3:35 PM 58.6 °F 40.8 °F 52% 30.00 in 10.0 mi WSW 9.2 mph - N/A   Overcast
3:55 PM 57.9 °F 43.7 °F 59% 30.00 in 10.0 mi West 5.8 mph - N/A Rain Light Rain
4:15 PM 57.2 °F 44.2 °F 62% 30.00 in 10.0 mi WSW 8.1 mph - N/A   Light Drizzle
4:55 PM 56.3 °F 43.3 °F 62% 30.01 in 10.0 mi WSW 11.5 mph - N/A Thunderstorm Overcast
5:15 PM 55.4 °F 45.7 °F 70% 30.02 in 10.0 mi WSW 9.2 mph - N/A Rain Light Rain
5:35 PM 53.8 °F 46.6 °F 77% 30.02 in 10.0 mi WSW 8.1 mph - N/A Rain Light Rain
5:55 PM 53.4 °F 46.0 °F 76% 30.02 in 10.0 mi WNW 3.5 mph - N/A Rain Light Rain
6:15 PM 53.6 °F 45.5 °F 74% 30.02 in 10.0 mi North 5.8 mph - N/A   Light Drizzle
6:35 PM 53.6 °F 46.6 °F 77% 30.01 in 10.0 mi NE 3.5 mph - N/A   Light Drizzle
6:55 PM 54.0 °F 46.6 °F 76% 30.01 in 10.0 mi East 4.6 mph - N/A   Mostly Cloudy
7:15 PM 53.4 °F 47.3 °F 80% 30.02 in 10.0 mi East 4.6 mph - N/A   Scattered Clouds
7:35 PM 52.9 °F 47.5 °F 82% 30.02 in 10.0 mi East 6.9 mph - N/A   Clear
7:55 PM 52.2 °F 46.8 °F 82% 30.02 in 10.0 mi ENE 5.8 mph - N/A   Clear
8:15 PM 51.4 °F 46.0 °F 82% 30.03 in 10.0 mi NE 4.6 mph - N/A Thunderstorm Scattered Clouds
8:55 PM 51.1 °F 46.4 °F 84% 30.03 in 10.0 mi ENE 5.8 mph - N/A   Mostly Cloudy
9:15 PM 50.9 °F 45.7 °F 82% 30.05 in 10.0 mi NE 5.8 mph - N/A   Scattered Clouds
9:35 PM 49.5 °F 45.5 °F 86% 30.06 in 10.0 mi North 5.8 mph - N/A   Clear
9:55 PM 49.5 °F 44.8 °F 84% 30.06 in 10.0 mi North 6.9 mph - N/A Thunderstorm Scattered Clouds
10:15 PM 50.0 °F 45.0 °F 83% 30.06 in 10.0 mi NNE 6.9 mph - N/A   Mostly Cloudy
10:35 PM 49.8 °F 44.4 °F 82% 30.06 in 10.0 mi NE 4.6 mph - N/A   Mostly Cloudy
10:55 PM 50.2 °F 44.6 °F 81% 30.06 in 10.0 mi ENE 6.9 mph - N/A Thunderstorm Thunderstorm
11:15 PM 50.2 °F 43.3 °F 77% 30.09 in 10.0 mi WSW 19.6 mph 32.2 mph N/A   Overcast
11:35 PM 48.9 °F 43.0 °F 80% 30.09 in 5.0 mi WNW 11.5 mph 20.7 mph 0.04 in Rain Rain
11:55 PM 49.5 °F 43.7 °F 81% 30.10 in 10.0 mi SSW 9.2 mph - 0.05 in Rain Light Rain